Regional Weather Roundup
Issued by NWS Kansas City/Pleasant Hill, MO

Home | Current Version | Previous Version | Graphics & Text | Print | Product List | Glossary Off
Versions: 1 2 3 4 5 6 7 8 9 10 11 12 13 14 15 16 17 18 19 20 21 22 23 24 25 26 27 28

000
ASUS43 KEAX 230110
RWREAX

WEATHER ROUNDUP FOR EASTERN KANSAS AND NORTHWEST MISSOURI
NATIONAL WEATHER SERVICE KANSAS CITY/PLEASANT HILL MO
800 PM CDT FRI SEP 22 2017

KSZ040-057-103>105-MOZ028-029-037-043-230200-
...KANSAS CITY METROPOLITAN AREA...

CITY           SKY/WX    TMP DP  RH WIND       PRES   REMARKS
K.C. INTL      PTCLDY    77  69  76 S8        29.94R
K.C. DOWNTOWN  CLEAR     86  69  56 S7        29.92S HX  90
LEES SUMMIT    CLEAR     82  69  64 S8        29.96R
OLATHE - IXD   CLEAR     79  68  69 SE9       29.95R
OLATHE - OJC   CLEAR     78  69  73 S8        29.95R
LAWRENCE       CLEAR     79  71  76 SE7       29.92R

$$

MOZ001>008-011>017-020>025-030>033-038>040-044>046-053-054-230200-
...NORTHERN AND CENTRAL MISSOURI...

CITY           SKY/WX    TMP DP  RH WIND       PRES   REMARKS
ST. JOSEPH     CLEAR     81  70  69 S8        29.91R
MOSBY          CLEAR     81  66  61 SE3       29.93S
WARRENSBURG    CLEAR     77  68  73 SE3       29.95S
WHITEMAN AFB   CLEAR     79  76  92 SE3       29.95S
CLINTON        CLEAR     77  72  83 MISG      29.96S
SEDALIA        CLEAR     80  70  71 SE3       29.98R
WARSAW         NOT AVBL
CHILLICOTHE      N/A     80  70  71 S3        29.96R
KIRKSVILLE     CLEAR     77  66  68 S5        29.99R

$$

MOZ041-047>049-056>058-063>065-088>090-097-230200-
...EASTERN AND SOUTHERN MISSOURI...

CITY           SKY/WX    TMP DP  RH WIND       PRES   REMARKS
ST. LOUIS INTL PTCLDY    86  61  42 SE8       29.99R
SPIRIT OF STL  CLEAR     77  68  73 CALM      29.97R
COLUMBIA       CLEAR     83  69  62 SE3       29.98S
JEFFERSON CITY CLEAR     78  68  71 SE3       29.96R
ROLLA          CLEAR     74  65  73 SE6       30.01R
OSAGE BEACH    CLEAR     75  71  87 CALM      29.98S
SPRINGFIELD    CLEAR     79  67  66 S3        29.98S
BRANSON        PTCLDY    81  63  54 S6        30.00S
JOPLIN         CLEAR     80  68  66 SE5       29.95F
WEST PLAINS    CLEAR     77  65  66 CALM      30.02S

$$

IAZ060-094-KSZ022-034>040-054-083-096-NEZ052-066-093-230200-
...KANSAS...SOUTHEAST NEBRASKA AND IOWA...

CITY           SKY/WX    TMP DP  RH WIND       PRES   REMARKS
TOPEKA         CLEAR     82  70  66 SE10      29.90R
MANHATTAN      PTCLDY    86  66  51 S12       29.86R
EMPORIA        CLEAR     81  66  60 SE13      29.90S
CHANUTE        CLEAR     79  69  71 SE8       29.93S
WICHITA        PTCLDY    83  69  62 S14G23    29.87S
OMAHA          MOCLDY    87  67  51 S21G30    29.84R HX  90
LINCOLN        MOCLDY    86  67  52 S18G28    29.82R
FALLS CITY     CLEAR     81  68  64 S10       29.88S
LAMONI         CLEAR     81  67  62 S7        29.94R
DES MOINES     PTCLDY    83  68  60 SE8       29.90S

$$





USA.gov is the U.S. government's official web portal to all federal, state and local government web resources and services.